Location: Mexico
(19.4000°N, 99.1500°W)
Time: 18:04:11
(UTC-06:00)

ISS - Pass Details

Date: 18 February 2020
Orbit: 415 x 422 km, 51.6° (Epoch: 27 February)

Event Time Altitude Azimuth Distance (km) Brightness Sun altitude
Exits shadow 05:42:10 - 191° (S) 2,282 -0.1 -19.8°
Reaches altitude 10° 05:44:27 10° 174° (S) 1,484 -0.8 -19.3°
Maximum altitude 05:46:57 20° 125° (SE) 1,037 -1.0 -18.7°
Drops below altitude 10° 05:49:28 10° 76° (ENE) 1,491 0.1 -18.1°
Sets 05:51:56 0° 58° (ENE) 2,357 0.9 -17.5°
